Location: Ffm
(50.0000°N, 8.5000°E)
Time: 12:55:24
(UTC+01:00)

ISS - Pass Details

Date: 04 November 2020
Orbit: 418 x 420 km, 51.6° (Epoch: 04 December)

Event Time Altitude Azimuth Distance (km) Brightness Sun altitude
Exits shadow 05:55:19 28° 286° (WNW) 818 -2.9 -14.1°
Maximum altitude 05:56:57 88° 202° (SSW) 426 -3.8 -13.8°
Drops below altitude 10° 06:00:20 10° 108° (ESE) 1,502 0.5 -13.3°
Sets 06:02:28 0° 108° (ESE) 2,387 2.0 -13.0°
